Vorticity
nan nan nan nan nan nan nan nan nan nan nan nan nan nan nan nan nan nan nan nan nan nan nan nan nan nan nan nan nan nan nan nan nan nan nan nan nan nan nan nan nan nan nan nan nan nan nan nan nan nan nan nan nan nan nan nan nan nan nan nan nan nan nan nan nan nan nan nan nan nan nan nan nan nan nan nan nan nan nan nan nan nan nan nan nan nan
nan 10 9 10 16 17 16 13 9 9 10 9 11 14 16 13 10 9 8 9 8 7 10 12 13 13 11 10 11 10 7 6 6 6 7 7 7 7 7 7 7 8 8 7 7 7 7 7 7 8 7 7 7 6 6 6 6 6 6 6 6 7 7 7 7 6 6 6 5 5 5 5 5 6 6 6 6 7 7 7 7 7 8 7 7 nan
nan 10 8 9 13 16 16 11 8 9 9 8 13 17 15 8 6 7 9 10 9 9 10 11 11 10 9 9 11 9 8 8 8 8 8 8 8 8 8 8 8 8 8 7 7 7 7 8 8 8 7 7 6 6 5 5 5 5 6 6 6 6 7 6 6 6 6 5 5 5 5 5 5 6 6 6 7 7 7 7 7 7 8 7 7 nan
nan 8 8 10 10 13 16 13 10 8 7 10 14 14 8 4 6 9 12 12 11 10 10 11 10 8 7 9 13 13 12 10 10 10 9 9 9 9 9 9 8 8 8 7 7 7 8 8 7 7 7 6 6 5 5 5 5 5 5 6 6 6 6 6 5 5 5 5 5 5 5 5 6 6 6 6 7 7 7 7 7 7 7 7 7 nan
nan 8 9 10 9 9 13 15 13 10 9 10 9 7 4 6 8 10 12 13 11 9 8 9 9 9 10 13 18 18 15 12 11 11 10 10 10 10 10 9 9 9 8 8 8 8 8 7 7 6 6 6 5 5 5 5 5 5 6 6 5 6 5 5 5 5 5 5 5 5 5 6 6 6 6 7 7 7 7 7 7 7 7 7 7 nan
nan 9 11 10 10 9 10 12 13 11 8 6 6 5 6 9 11 11 11 10 8 7 7 8 10 11 14 19 22 19 13 11 11 11 11 11 11 11 10 9 9 8 8 8 8 8 7 7 6 6 6 6 6 6 5 5 5 5 5 5 5 5 5 5 5 4 5 5 5 5 5 6 6 6 7 7 7 7 7 7 7 7 7 7 7 nan
nan 11 13 12 11 10 10 11 11 11 8 7 5 5 7 9 10 12 12 11 10 8 8 9 10 11 14 18 16 10 5 4 5 6 8 9 9 9 10 10 9 9 8 8 8 7 7 6 6 6 6 6 6 6 6 5 5 5 5 5 5 5 5 5 5 4 4 5 5 5 6 6 6 7 7 7 7 7 7 7 7 7 7 7 7 nan
nan 11 12 12 11 10 9 8 9 12 13 11 7 6 6 7 8 9 10 12 12 10 8 8 9 10 11 11 7 2 1 -1 -2 -1 1 1 3 5 8 8 8 9 8 8 7 7 7 6 6 6 6 6 6 6 5 5 5 5 5 5 5 5 5 5 5 5 5 5 5 6 6 6 7 7 7 7 7 7 7 7 7 6 7 7 7 nan
nan 8 10 11 10 9 7 6 8 12 16 15 11 9 7 7 7 6 7 8 9 10 10 9 9 8 7 6 5 4 6 6 7 7 6 5 7 8 8 6 6 6 8 7 7 7 7 6 6 6 6 6 6 6 5 5 5 5 5 5 4 4 4 5 5 5 5 5 6 6 6 7 7 7 7 7 7 7 7 7 7 7 6 7 7 nan
nan 8 8 8 10 10 9 6 7 11 16 16 13 12 10 8 6 6 7 6 7 10 12 11 9 6 6 5 7 7 8 10 12 14 15 16 16 14 10 7 7 9 9 7 7 7 7 7 6 6 6 6 6 5 5 5 5 5 5 5 4 4 4 5 5 5 5 6 6 6 7 7 7 7 7 7 7 7 7 7 7 7 7 6 6 nan
nan 8 7 7 8 11 11 10 9 11 12 12 10 10 12 11 9 9 7 5 7 9 11 10 8 7 6 5 6 6 6 5 5 5 8 9 9 8 6 7 9 10 6 5 6 7 7 7 6 6 5 5 5 5 5 5 5 5 5 5 4 4 5 5 5 5 6 6 6 7 7 7 7 7 7 7 7 7 7 7 7 7 7 7 7 nan
nan 7 8 9 9 9 9 10 10 12 10 9 8 8 9 10 11 11 7 6 7 8 8 8 8 9 9 8 6 6 6 5 3 1 -0 -1 -2 -1 -1 1 2 1 -2 -0 1 3 6 6 5 5 5 5 5 5 5 5 5 5 5 5 5 4 4 5 5 6 6 6 7 7 7 7 7 7 7 7 7 7 7 7 7 7 7 7 7 nan
nan 9 9 10 10 10 9 9 9 11 10 10 10 8 6 7 10 10 8 8 7 7 7 7 7 7 8 10 10 9 8 7 6 5 4 2 1 0 1 1 0 -2 -2 -2 -1 3 6 2 1 2 5 5 5 5 5 5 5 5 5 5 4 5 5 5 6 6 6 7 7 7 7 7 7 7 7 7 7 7 7 7 7 8 8 8 8 nan
nan 9 10 10 10 11 11 10 10 10 9 9 9 8 8 9 11 10 9 7 7 8 8 9 7 5 5 9 12 13 10 7 6 6 7 7 7 7 8 7 7 5 4 4 5 8 6 0 0 4 5 3 4 4 4 4 4 5 5 5 4 5 5 5 6 6 7 7 7 7 7 7 7 7 7 7 7 7 7 7 7 8 8 8 8 nan
nan 9 10 9 9 10 10 10 9 9 8 9 9 9 10 12 12 11 11 9 8 7 8 8 7 7 6 7 11 14 12 8 8 8 8 7 8 10 11 10 9 8 8 8 9 9 4 2 4 7 6 6 7 8 7 5 4 5 5 5 5 5 5 6 6 6 7 7 7 8 7 7 7 7 7 7 7 7 7 8 8 8 8 8 8 nan
nan 9 10 9 8 8 9 10 9 9 9 10 11 11 11 10 10 10 11 8 6 6 6 4 3 4 6 9 11 15 13 9 9 10 8 5 7 10 11 10 9 8 9 9 8 7 5 7 9 11 11 13 12 10 7 5 5 5 5 5 5 5 6 6 6 7 7 7 7 8 8 7 7 7 7 7 7 8 8 8 8 8 8 8 8 nan
nan 10 10 9 9 8 8 9 10 10 10 11 11 12 11 9 8 8 8 7 5 7 7 5 3 3 5 8 10 13 13 11 10 9 7 6 8 10 11 11 10 8 8 8 9 8 8 9 9 11 15 15 10 7 5 5 5 5 5 5 5 6 6 6 7 7 7 8 8 8 7 7 7 7 7 8 8 8 8 8 8 8 8 8 8 nan
nan 10 10 9 9 9 8 7 9 11 12 11 10 10 10 10 10 10 9 7 7 8 8 6 6 7 8 8 9 10 11 12 10 9 8 8 8 9 10 12 11 9 8 8 9 10 11 10 11 15 17 13 8 5 5 5 5 5 5 5 6 6 7 7 7 7 7 8 8 7 7 7 7 7 7 8 8 8 8 8 8 8 8 8 8 nan
nan 9 9 9 10 9 8 8 10 12 11 10 10 9 9 10 11 11 10 10 9 9 7 7 8 9 10 13 13 11 11 12 10 9 7 7 8 9 10 12 11 9 8 9 9 11 11 12 15 16 14 8 6 5 5 5 5 5 5 6 6 6 7 7 7 7 8 7 7 7 7 7 7 8 8 8 8 8 9 8 8 8 8 8 9 nan
nan 8 9 10 10 8 7 9 12 13 12 11 10 9 9 9 9 9 9 9 8 8 9 10 9 10 10 12 13 12 11 10 9 8 6 7 7 8 10 11 9 8 8 8 9 10 11 11 11 11 10 7 6 5 5 5 5 6 6 6 6 6 7 7 7 7 7 7 7 7 7 8 8 8 8 8 8 8 8 8 8 8 8 8 9 nan
nan 10 11 12 11 9 9 10 13 14 14 11 9 9 9 9 9 9 8 8 8 9 10 10 12 12 14 14 12 11 10 9 8 6 6 7 8 8 10 11 10 8 8 8 9 10 10 9 9 11 9 8 7 6 5 5 5 6 6 6 6 6 6 7 7 7 7 7 7 7 7 8 8 8 8 8 8 8 8 8 8 8 8 8 9 nan
nan 11 12 12 12 12 13 14 16 15 13 10 8 8 8 9 9 9 8 7 9 10 12 13 14 15 16 13 10 8 9 10 11 9 9 10 10 9 10 11 10 8 7 7 9 10 10 9 11 13 11 8 6 5 5 5 5 6 6 6 6 6 6 6 6 6 7 7 7 7 8 8 8 8 9 8 8 8 8 8 8 7 8 9 9 nan
nan 12 12 12 12 14 15 16 15 14 11 9 9 10 12 13 11 10 9 10 12 13 12 14 13 13 12 10 7 6 8 11 12 12 12 12 10 8 9 10 9 9 8 8 9 10 9 9 10 11 9 7 5 5 5 5 5 5 5 5 6 6 6 6 6 6 6 7 7 7 8 8 8 8 8 8 8 8 7 7 7 7 8 9 10 nan
nan 11 10 10 12 14 15 14 13 12 10 9 11 12 15 16 16 16 16 17 16 14 12 11 10 8 7 7 6 5 6 9 12 12 13 12 11 9 10 10 10 9 8 9 9 9 8 8 8 8 7 6 5 4 4 4 5 5 5 5 6 6 6 5 6 6 6 6 7 8 8 8 8 8 8 8 8 8 7 7 7 8 9 10 10 nan
nan 12 12 15 17 18 18 17 17 15 14 12 12 12 13 14 15 15 16 15 13 12 12 10 7 5 5 4 4 4 6 9 12 14 13 12 12 11 10 10 10 9 8 8 9 9 9 8 7 7 7 6 5 4 4 4 4 5 5 6 6 6 6 6 5 6 6 7 7 8 8 8 8 8 8 8 8 7 7 7 7 8 10 11 11 nan
nan 19 21 22 22 21 20 18 18 16 15 14 13 12 10 8 7 8 9 9 10 10 9 6 6 5 6 6 6 6 7 8 11 13 13 13 12 10 9 10 10 10 9 8 8 10 10 9 8 7 8 7 6 6 4 4 5 5 6 6 7 7 6 6 6 6 6 7 8 8 9 9 9 9 8 8 8 8 7 8 9 10 13 14 13 nan
nan 21 21 19 18 16 15 14 13 12 12 14 14 12 7 5 5 5 6 8 8 8 6 6 6 6 7 8 8 7 8 8 10 11 13 14 13 10 9 10 10 10 9 8 10 11 11 9 9 8 8 8 8 8 7 6 6 6 7 8 8 8 8 7 7 7 7 8 8 9 9 9 9 9 9 9 9 8 8 9 11 13 17 18 17 nan
nan 15 15 14 13 13 12 10 9 8 10 12 10 3 -2 1 5 6 5 6 7 7 8 8 6 6 8 9 8 7 7 8 9 11 12 12 12 11 11 10 10 9 7 7 8 9 7 8 9 9 8 9 9 10 9 7 7 7 7 8 9 9 8 8 7 7 8 8 9 9 9 9 9 10 10 9 9 9 9 11 14 18 22 23 20 nan
nan 12 12 12 11 9 7 6 8 9 10 7 1 -8 -9 -0 7 9 9 7 7 8 9 8 7 8 9 10 9 8 7 8 10 10 10 9 10 12 12 10 9 7 6 6 5 5 5 7 9 10 11 10 9 9 9 9 8 7 5 6 7 8 8 8 8 8 8 9 9 9 9 9 10 10 10 10 9 9 9 13 20 25 23 17 15 nan
nan 8 8 8 5 4 2 4 9 13 10 3 -5 -11 -7 5 13 16 14 10 8 8 9 8 8 9 8 8 7 8 9 11 11 9 8 8 10 12 12 10 9 7 5 5 6 6 6 8 9 10 11 11 9 9 9 10 9 8 5 4 5 5 5 7 8 8 8 8 8 8 9 9 10 10 10 10 9 9 9 16 25 29 21 12 11 nan
nan 6 6 6 4 3 4 7 10 12 8 -1 -7 -7 1 12 17 18 15 11 10 10 10 10 10 9 6 4 6 8 12 15 13 8 6 9 11 13 11 9 8 7 5 7 9 9 9 9 9 10 11 11 10 10 10 9 9 9 8 6 4 1 1 5 8 8 7 7 7 7 8 9 9 9 10 10 9 9 9 16 25 29 20 11 10 nan
nan 8 8 8 8 7 8 9 9 9 6 1 -1 2 8 13 15 15 12 12 12 13 13 13 11 9 6 5 8 10 14 18 17 9 4 6 11 14 12 10 9 6 6 9 12 12 11 11 11 11 10 11 10 10 10 9 9 9 9 9 7 1 1 6 8 9 7 6 6 7 7 7 8 8 9 9 9 8 8 13 22 27 22 13 10 nan
nan 10 11 10 10 10 11 11 10 9 7 6 7 9 10 10 11 11 11 13 15 16 15 13 11 9 6 5 7 11 16 21 21 13 3 3 9 12 13 11 9 6 6 9 12 13 13 14 13 12 11 10 10 10 10 10 9 9 9 9 9 5 5 8 9 10 8 8 8 7 6 6 6 7 7 8 8 7 7 10 16 22 24 18 11 nan
nan 10 10 10 10 10 11 11 10 10 10 10 11 11 10 9 8 8 10 13 15 16 16 14 12 9 6 4 6 10 15 21 21 13 2 2 9 13 13 11 9 7 6 7 9 10 12 14 13 12 11 11 10 10 10 9 9 10 10 9 9 8 8 9 9 9 10 11 11 9 8 6 5 6 6 5 5 5 5 7 10 13 21 23 17 nan
nan 9 9 9 9 10 10 10 10 10 10 10 10 10 10 9 8 9 10 12 13 14 15 15 14 13 10 8 9 10 14 19 19 10 2 4 9 13 13 11 10 8 7 7 8 9 11 13 13 11 10 10 10 10 10 10 10 10 10 10 9 9 9 9 9 9 10 11 11 11 11 9 7 6 3 1 2 3 4 6 7 8 13 18 21 nan
nan 9 8 9 9 9 9 8 8 8 9 9 9 10 10 10 10 10 11 11 12 12 13 15 16 17 18 17 16 15 16 18 17 9 3 5 9 11 12 12 11 8 7 8 9 10 12 13 13 10 8 8 9 9 9 10 10 10 10 10 10 11 10 9 10 10 10 9 9 10 11 10 9 8 1 -2 3 5 7 8 8 8 9 11 15 nan
nan 9 9 8 9 9 8 7 7 8 8 8 9 10 11 11 11 11 11 12 12 12 11 11 14 17 23 26 23 22 21 19 16 12 7 6 9 10 13 15 13 8 7 10 10 10 10 11 10 8 7 9 11 11 10 9 9 10 10 10 10 10 10 10 11 11 9 8 9 9 10 10 10 8 3 2 8 10 11 11 12 10 8 8 8 nan
nan 9 9 9 9 9 8 8 8 9 9 10 10 10 11 12 12 12 12 12 12 13 12 11 11 11 18 25 25 24 23 20 16 13 10 9 10 12 14 15 13 8 8 11 10 9 8 9 8 7 8 10 12 12 11 9 8 8 9 11 11 11 10 10 10 11 9 8 8 9 11 12 12 11 8 9 12 12 13 12 10 8 9 8 5 nan
nan 10 10 10 10 9 9 10 10 10 11 12 12 12 10 10 10 10 11 11 11 12 14 14 12 8 8 12 15 17 17 14 13 12 10 10 11 12 13 13 11 9 9 10 10 10 10 10 10 10 10 9 9 9 10 10 10 9 10 11 12 12 11 10 10 10 9 8 8 9 12 12 12 11 11 11 10 10 11 11 9 10 12 10 4 nan
nan 9 10 10 10 12 13 12 11 11 11 11 11 9 8 6 5 6 8 10 9 9 9 11 10 8 5 5 6 8 11 12 12 12 10 12 13 14 13 11 10 10 9 9 10 11 11 12 13 14 12 11 10 9 10 11 11 11 11 11 10 9 9 10 10 11 10 9 8 10 12 12 10 10 10 10 10 10 10 10 9 8 11 12 9 nan
nan 8 9 9 10 12 12 13 13 13 12 9 8 7 6 6 5 6 6 7 7 6 4 4 5 6 6 6 6 7 10 13 13 14 16 16 16 15 13 11 10 10 9 9 11 13 14 14 13 11 11 12 11 11 10 10 11 11 12 11 10 9 9 9 9 9 10 9 8 8 11 11 10 10 10 11 12 11 11 11 9 9 11 12 10 nan
nan 8 9 10 11 11 13 13 12 11 9 8 8 8 8 7 8 8 8 7 7 7 7 6 6 5 5 5 5 6 9 12 13 15 16 15 14 13 12 10 10 10 10 10 11 12 14 14 13 12 10 9 9 9 9 10 10 11 11 11 10 10 10 10 9 9 9 8 8 6 9 12 10 9 10 11 12 12 12 11 9 9 13 14 11 nan
nan 10 11 12 12 13 13 9 7 7 7 8 9 10 9 10 11 11 9 8 9 10 9 9 9 8 7 6 6 6 7 10 12 13 12 12 12 11 12 12 13 13 11 10 9 9 10 12 12 11 10 11 11 12 10 8 8 9 10 12 11 12 10 8 9 9 9 8 8 7 8 11 11 10 11 12 13 13 12 8 6 8 13 14 11 nan
nan 11 12 12 11 11 9 7 7 8 9 10 10 10 11 12 12 10 8 10 11 9 9 9 9 8 7 8 8 8 7 7 7 8 9 12 14 15 14 13 14 15 15 13 10 8 8 8 9 10 11 13 13 13 11 9 8 9 9 11 12 12 10 8 8 9 9 9 8 8 8 10 12 12 12 13 13 13 12 10 8 7 9 12 11 nan
nan 11 11 10 10 10 9 9 9 10 11 11 11 10 11 11 10 9 11 12 11 9 9 8 5 5 6 9 9 9 8 7 6 5 4 5 9 13 14 13 13 13 15 15 15 14 11 8 8 9 11 12 12 12 11 10 9 9 9 11 12 12 10 8 8 9 8 8 9 9 9 11 13 13 12 12 12 12 10 8 9 9 10 11 10 nan
nan 12 10 10 11 12 10 9 9 10 11 11 10 10 10 10 10 12 13 10 9 8 8 7 8 10 12 11 9 8 9 9 7 6 5 4 4 7 11 13 14 14 13 14 15 17 16 14 11 9 9 8 8 9 11 11 10 9 9 10 11 11 11 9 9 9 8 8 9 10 11 13 13 11 9 10 12 12 10 8 8 8 10 11 10 nan
nan 11 10 10 10 11 10 10 10 10 10 10 10 10 10 11 12 12 11 9 8 9 9 9 12 15 14 10 9 10 11 10 9 8 9 8 8 9 9 9 11 13 14 14 14 15 16 17 15 14 10 7 6 6 9 11 11 10 10 10 10 11 11 9 9 8 8 8 9 10 12 12 10 9 9 12 13 12 11 10 9 9 9 9 10 nan
nan 10 9 10 10 11 10 10 10 10 10 10 10 11 12 13 13 11 8 9 9 9 9 10 12 13 11 10 12 13 13 10 9 9 9 8 8 9 9 9 8 8 9 10 10 11 12 15 17 18 16 13 11 8 8 9 11 11 10 10 10 10 9 8 9 9 9 9 10 12 12 11 9 8 10 12 13 12 10 10 10 11 10 10 10 nan
nan 11 10 10 10 11 11 11 11 11 11 10 10 10 13 14 12 7 6 9 9 9 11 12 12 11 10 11 13 13 11 9 9 9 9 9 9 9 9 9 8 7 6 4 3 3 4 6 10 16 21 20 17 13 10 9 9 10 11 10 10 10 9 8 9 9 10 10 12 13 14 11 10 9 9 10 11 10 10 10 11 11 10 10 10 nan
nan 11 11 10 11 11 11 11 11 11 12 11 10 9 10 10 9 7 8 10 10 11 12 13 12 11 11 12 12 11 9 8 9 10 10 10 11 11 10 10 8 7 5 3 3 3 1 -1 -1 1 10 20 23 20 13 9 8 9 10 11 11 10 9 9 9 9 10 11 13 13 13 12 11 10 9 9 10 10 10 9 9 10 10 10 10 nan
nan nan nan nan nan nan nan nan nan nan nan nan nan nan nan nan nan nan nan nan nan nan nan nan nan nan nan nan nan nan nan nan nan nan nan nan nan nan nan nan nan nan nan nan nan nan nan nan nan nan nan nan nan nan nan nan nan nan nan nan nan nan nan nan nan nan nan nan nan nan nan nan nan nan nan nan nan nan nan nan nan nan nan nan nan nan
CAPE
nan nan nan nan nan nan nan nan nan nan nan nan nan nan nan nan nan nan nan nan nan nan nan nan nan nan nan nan nan nan nan nan nan nan nan nan nan nan nan nan nan nan nan nan nan nan nan nan nan nan nan nan nan nan nan nan nan nan nan nan nan nan nan nan nan nan nan nan nan nan nan nan nan nan nan nan 0 0 1 2 2 4 5 5 5 6
nan nan nan nan nan nan nan nan nan nan nan nan nan nan nan nan nan nan nan nan nan nan nan nan nan nan nan nan nan nan nan nan nan nan nan nan nan nan nan nan nan nan nan nan nan nan nan nan nan nan nan nan nan nan nan nan nan nan nan nan nan nan nan nan nan nan nan nan nan nan nan nan nan nan nan nan 0 0 1 3 3 5 6 5 5 6
nan nan nan nan nan nan nan nan nan nan nan nan nan nan nan nan nan nan nan nan nan nan nan nan nan nan nan nan nan nan nan nan nan nan nan nan nan nan nan nan nan nan nan nan nan nan nan nan nan nan nan nan nan nan nan nan nan nan nan nan nan nan nan nan nan nan nan nan nan nan nan nan nan nan nan 0 1 1 2 4 4 6 8 8 8 7
nan nan nan nan nan nan nan nan nan nan nan nan nan nan nan nan nan nan nan nan nan nan nan nan nan nan nan nan nan nan nan nan nan nan nan nan nan nan nan nan nan nan nan nan nan nan nan nan nan nan nan nan nan nan nan nan nan nan nan nan nan nan nan nan nan nan nan nan nan nan nan nan nan nan nan 0 1 1 3 5 5 7 8 8 8 8
nan nan nan nan nan nan nan nan nan nan nan nan nan nan nan nan nan nan nan nan nan nan nan nan nan nan nan nan nan nan nan nan 0 0 1 1 1 1 0 nan nan nan nan nan nan nan nan nan nan nan nan nan nan nan nan nan nan nan nan nan nan nan nan nan nan nan nan nan nan nan nan nan nan nan 0 0 1 1 3 5 5 6 7 8 8 8
nan nan nan nan nan nan nan nan nan nan nan nan nan nan nan nan nan nan nan nan nan nan nan nan nan nan nan nan nan nan nan 1 1 1 1 1 1 1 0 nan nan nan nan nan nan nan nan nan nan nan nan nan nan nan nan nan nan nan nan nan nan nan nan nan nan nan nan nan nan nan nan nan nan nan 0 1 1 1 2 4 4 5 6 7 7 7
nan nan nan nan nan nan nan nan nan nan nan nan nan nan nan nan nan nan nan nan nan nan nan nan nan nan nan nan 0 0 1 2 3 3 3 3 2 2 1 0 0 nan nan nan nan nan nan nan nan nan nan nan nan nan nan nan nan nan nan nan nan nan nan nan nan nan nan nan nan nan nan nan 0 0 0 1 1 1 2 3 3 4 5 6 6 6
nan nan nan nan nan nan nan nan nan nan nan nan nan nan nan nan nan nan nan nan nan nan nan nan nan nan nan nan nan nan nan nan 0 0 3 7 5 5 3 2 2 0 0 nan nan nan nan nan nan nan nan nan nan nan nan nan nan nan nan nan nan nan nan nan nan nan nan nan nan nan nan 0 0 0 1 2 2 2 2 2 2 2 2 2 2 3
nan nan nan nan nan nan nan nan nan nan nan nan nan nan nan nan nan nan nan nan nan nan nan nan nan nan nan nan nan nan nan nan nan nan nan nan nan nan 3 3 3 1 0 nan nan nan nan nan nan nan nan nan nan nan nan nan nan nan nan nan nan nan nan nan nan nan nan nan nan nan nan 0 1 1 1 2 1 1 1 1 1 1 1 1 1 0
nan nan nan nan nan nan nan nan nan nan nan nan nan nan nan nan nan nan nan nan nan nan nan nan nan nan nan nan nan nan nan 3 11 11 9 0 8 8 1 0 0 0 0 0 0 nan nan nan nan nan nan nan nan nan nan nan nan nan nan nan nan nan nan nan nan nan nan nan nan nan 0 0 1 1 1 1 1 1 1 0 0 0 0 0 0 0
nan nan nan nan nan nan nan nan nan nan nan nan nan nan nan nan nan nan nan nan nan nan nan nan nan nan nan nan nan nan nan nan 0 0 8 3 3 3 2 0 0 1 1 0 0 0 0 0 0 0 0 nan nan nan nan nan nan nan nan nan nan nan nan nan nan nan nan nan 0 0 0 1 1 1 1 1 1 1 1 0 0 0 0 0 0 0
nan nan nan nan nan nan nan nan nan nan nan nan nan nan nan nan nan nan nan nan nan nan nan nan nan nan nan nan nan nan nan nan nan nan nan nan 1 1 0 1 1 2 2 2 2 1 0 0 0 0 nan nan nan nan nan nan nan nan nan nan nan nan nan nan nan nan nan nan 0 0 0 1 1 1 1 1 1 1 1 0 0 0 nan nan nan nan
nan nan nan nan nan nan nan nan nan nan nan nan nan nan nan nan nan nan nan nan nan nan nan nan nan nan nan nan nan nan nan nan nan nan nan nan nan nan nan nan nan nan nan nan nan nan 1 0 0 0 nan nan nan nan nan nan nan nan nan nan nan nan nan nan nan nan nan nan 0 0 1 1 1 1 1 1 1 1 1 0 0 nan nan nan nan nan
nan nan nan nan nan nan nan nan nan nan nan nan nan nan nan nan nan nan nan nan nan nan nan nan nan nan nan nan nan nan nan nan nan nan nan nan nan nan nan nan nan nan nan nan nan nan nan nan nan nan 0 nan nan nan nan nan nan nan nan nan nan nan nan nan nan nan nan nan 0 0 1 1 1 1 1 0 0 0 0 nan nan nan nan nan nan nan
nan nan nan nan nan nan nan nan nan nan nan nan nan nan nan nan nan nan nan nan nan nan nan nan nan nan nan nan nan nan nan nan nan nan nan nan nan nan nan nan nan nan nan nan nan nan nan nan nan nan nan nan nan nan nan nan nan nan nan nan nan nan nan nan nan nan nan nan 0 0 0 0 0 0 0 0 0 0 nan nan nan nan nan nan nan nan
nan nan nan nan nan nan nan nan nan nan nan nan nan nan nan nan nan nan nan nan nan nan nan nan nan nan nan nan nan nan nan nan nan nan nan nan nan nan nan nan nan nan nan nan nan nan nan nan nan nan nan nan nan nan nan nan nan nan nan nan nan nan nan nan nan nan nan 0 0 0 0 0 0 0 0 nan nan nan nan nan nan nan nan nan nan nan
nan nan nan nan nan nan nan nan nan nan nan nan nan nan nan nan nan nan nan nan nan nan nan nan nan nan nan nan nan nan nan nan nan nan nan nan nan nan nan nan nan nan nan nan nan nan nan nan nan nan nan 1 nan nan nan nan nan nan nan nan nan nan nan nan nan nan nan 0 0 0 nan nan nan nan nan nan nan nan nan nan nan nan nan nan nan nan
nan nan nan nan nan nan nan nan nan nan nan nan nan nan nan nan nan nan nan nan nan nan nan nan nan nan nan nan nan nan nan nan nan nan nan nan nan nan nan nan nan nan nan nan nan nan nan nan nan nan nan nan nan nan nan nan nan nan nan nan nan nan nan nan nan nan nan 0 nan nan nan nan nan nan nan nan nan nan nan nan nan nan nan nan nan nan
nan nan nan nan nan nan nan nan nan nan nan nan nan nan nan nan nan nan nan nan nan nan nan nan nan nan nan nan nan nan nan nan nan nan nan nan nan nan nan nan nan nan nan nan nan nan nan nan nan nan 0 nan nan nan nan nan nan nan nan nan nan nan nan nan nan nan nan nan nan nan nan nan nan nan nan nan nan nan nan nan nan nan nan nan nan nan
nan nan nan nan nan nan nan nan nan nan nan nan nan nan nan nan nan nan nan nan nan nan nan nan nan nan nan nan nan nan nan nan nan nan nan nan nan nan nan nan nan nan nan nan nan nan nan nan nan nan 0 nan nan nan nan nan nan nan nan nan nan nan nan nan nan nan nan nan nan nan nan nan nan nan nan nan nan nan nan nan nan nan nan nan nan 0
nan nan nan nan nan nan nan nan nan nan nan nan nan nan nan nan nan nan nan nan nan nan nan nan nan nan nan nan nan nan nan nan nan nan nan nan nan nan nan nan nan nan nan nan nan nan nan nan nan nan nan nan nan nan nan nan nan nan nan nan nan nan nan nan nan nan nan nan nan nan nan nan nan nan nan nan nan nan nan nan nan nan nan nan nan 0
nan nan nan nan nan nan nan nan nan nan nan nan nan nan nan nan nan nan nan nan nan nan nan nan nan nan nan nan nan nan nan nan nan nan nan nan nan nan nan nan nan nan nan nan nan nan nan nan nan nan nan nan nan nan nan nan nan nan nan nan nan nan nan nan nan nan nan nan nan nan nan nan nan nan nan nan nan nan nan nan nan nan nan nan nan nan
nan nan nan nan nan nan nan nan nan nan nan nan nan nan nan nan nan nan nan nan nan nan nan nan nan nan nan nan nan nan nan nan nan nan nan nan nan nan nan nan nan nan nan nan nan nan nan nan nan nan 0 nan nan nan nan nan nan nan nan nan nan nan nan nan nan nan nan nan nan nan nan nan nan nan nan nan nan nan nan nan nan nan nan nan nan nan
nan nan nan nan nan nan nan nan nan nan nan nan nan nan nan nan nan nan nan nan nan nan nan nan nan nan nan nan nan nan nan nan nan nan nan nan nan nan nan nan nan nan nan nan nan nan nan nan nan nan nan nan nan nan nan nan nan nan nan nan nan nan nan nan nan nan nan nan nan nan nan nan nan nan nan nan nan nan nan nan nan nan nan nan nan nan
nan nan nan nan nan nan nan nan nan nan nan nan nan nan nan nan nan nan nan nan nan nan nan nan nan nan nan nan nan nan nan nan nan nan nan nan nan nan nan nan nan nan nan nan nan nan nan nan nan nan nan nan nan nan nan nan nan nan nan nan nan nan nan nan nan nan nan nan nan nan nan nan nan nan nan nan nan nan nan nan nan nan nan nan nan nan
nan nan nan nan nan nan 0 1 1 1 nan nan nan nan nan nan nan nan nan nan nan nan nan nan nan nan nan nan nan nan nan nan nan nan nan nan nan nan nan nan nan nan nan nan nan nan nan nan nan nan nan nan nan nan nan nan nan nan nan nan nan nan nan nan nan nan nan nan nan nan nan nan nan nan nan nan nan nan nan nan nan nan nan nan nan nan
1 0 1 1 1 2 2 3 4 4 3 2 nan nan nan nan nan nan nan nan nan nan nan nan nan nan nan nan nan nan nan nan nan nan nan nan nan nan nan nan nan nan nan nan nan nan nan nan nan nan nan nan nan nan nan nan nan nan nan nan nan nan nan nan nan nan nan nan nan nan nan nan nan nan nan nan nan nan nan nan nan nan nan nan nan nan
2 2 2 2 2 2 3 4 4 4 4 4 3 3 nan nan nan nan nan nan nan nan nan nan nan nan nan nan nan nan nan nan nan nan nan nan nan nan nan nan nan nan nan nan nan nan nan nan nan nan nan nan nan nan nan nan nan nan nan nan nan nan nan nan nan nan nan nan nan nan nan nan nan nan nan nan nan nan nan nan nan nan nan nan nan nan
1 2 2 3 3 3 4 5 5 5 5 5 3 3 nan nan nan nan nan nan nan nan nan nan nan nan nan nan nan nan nan nan nan nan nan nan nan nan nan nan nan nan nan nan nan nan nan nan nan nan nan nan nan nan nan nan nan nan nan nan nan nan nan nan nan nan nan nan nan nan nan nan nan nan nan nan nan nan nan nan nan nan nan nan nan nan
nan 0 1 3 3 4 5 3 6 6 7 6 5 5 nan nan nan nan nan nan nan nan nan nan nan nan nan nan nan nan nan nan nan nan nan nan nan nan nan nan nan nan nan nan nan nan nan nan nan nan nan nan nan nan nan nan nan nan nan nan nan nan nan nan nan nan nan nan nan nan nan nan nan nan nan nan nan nan nan nan nan nan nan nan nan nan
nan nan nan nan nan nan nan nan 3 3 8 9 7 7 nan nan nan nan nan nan nan nan nan nan nan nan nan nan nan nan nan nan nan nan nan nan nan nan nan nan nan nan nan nan nan nan nan nan nan nan nan nan nan nan nan nan nan nan nan nan nan nan nan nan nan nan nan nan nan nan nan nan nan nan nan nan nan nan nan nan nan nan nan nan nan nan
nan nan nan nan nan nan nan nan nan nan nan nan nan nan nan nan nan nan nan nan nan nan nan nan nan nan nan nan nan nan nan nan nan nan nan nan nan nan nan nan nan nan nan nan nan nan nan nan nan nan nan nan nan nan nan nan nan nan nan nan nan nan nan nan nan nan nan nan nan nan nan nan nan nan nan nan nan nan nan nan nan nan nan nan nan nan
nan nan nan nan nan nan nan nan nan nan nan nan nan nan nan nan nan nan nan nan nan nan nan nan nan nan nan nan nan nan nan nan 2 2 nan nan nan nan nan nan nan nan nan nan nan nan nan nan nan nan nan nan nan nan nan nan nan nan nan nan nan nan nan nan nan nan nan nan nan nan nan nan nan nan nan nan nan nan nan nan nan nan nan nan nan nan
nan nan nan nan nan nan nan nan nan nan nan nan nan nan nan nan nan nan nan nan nan nan nan nan nan nan nan nan nan nan nan nan 6 6 nan nan nan nan nan nan nan nan nan nan nan nan nan nan nan nan nan nan nan nan nan nan nan nan nan nan nan nan nan nan nan nan nan nan nan nan nan nan nan nan nan nan nan nan nan nan nan nan nan nan nan nan
nan nan nan nan nan nan nan nan nan nan nan nan nan nan nan nan nan nan nan nan nan nan nan nan nan nan nan nan nan nan nan nan 6 6 nan nan nan nan nan nan nan nan nan nan nan nan nan nan nan nan nan nan nan nan nan nan nan nan nan nan nan nan nan nan nan nan nan nan nan nan nan nan nan nan nan nan nan nan nan nan nan nan nan nan nan nan
nan nan nan nan nan nan nan nan nan nan nan nan nan nan nan nan nan nan nan nan nan nan nan nan nan nan nan nan nan nan nan nan 3 3 0 nan nan nan nan nan nan nan nan nan nan nan nan nan nan nan nan nan nan nan nan nan nan nan nan nan nan nan nan nan nan nan nan nan nan nan nan nan nan nan nan nan nan nan nan nan nan nan nan nan nan nan
nan nan nan nan nan nan nan nan nan nan nan nan nan nan nan nan nan nan nan nan nan nan nan nan nan nan nan nan nan nan nan nan nan nan nan nan nan nan nan nan nan nan nan nan nan nan nan nan nan nan nan nan nan nan nan nan nan nan nan nan nan nan nan nan nan nan nan nan nan nan nan nan nan nan nan nan nan nan nan nan nan nan nan nan nan nan
nan nan nan nan nan nan nan nan nan nan nan nan nan nan nan nan nan nan nan nan nan nan nan nan nan nan nan nan nan nan nan nan nan nan nan nan nan nan nan nan nan nan nan nan nan nan nan nan nan nan nan nan nan nan nan nan nan nan nan nan nan nan nan nan nan nan nan nan nan nan nan nan nan nan nan nan nan nan nan nan nan nan nan nan nan nan
nan nan nan nan nan nan nan nan nan nan nan nan nan nan nan nan nan nan nan nan nan nan nan nan nan nan nan nan nan nan nan nan nan nan nan nan nan nan nan nan nan nan nan nan nan nan nan nan nan nan nan nan nan nan nan nan nan nan nan nan nan nan nan nan nan nan nan nan nan nan nan nan nan nan nan nan nan nan nan nan nan nan nan nan nan nan
nan nan nan nan nan nan nan nan nan nan nan nan nan nan nan nan nan nan nan nan nan nan nan nan nan nan nan nan nan nan nan nan nan nan nan nan nan nan nan nan nan nan nan nan nan nan nan nan nan nan nan nan nan nan nan nan nan nan nan nan nan nan nan nan nan nan nan nan nan nan nan nan nan nan nan nan nan nan nan nan nan nan nan nan nan nan
nan nan nan nan nan nan nan nan nan nan nan nan nan nan nan nan nan nan nan nan nan nan nan nan nan nan nan nan nan nan nan nan nan nan nan nan nan nan nan nan nan nan nan nan nan nan nan nan nan nan nan nan nan nan nan nan nan nan nan nan nan nan nan nan nan nan nan nan nan nan nan nan nan nan nan nan nan nan nan nan nan nan nan nan nan nan
nan nan nan nan nan nan nan nan nan nan nan nan nan nan nan nan nan nan nan nan nan nan nan nan nan nan nan nan nan nan nan nan nan nan nan nan nan nan nan nan nan nan nan nan nan nan nan nan nan nan nan nan nan nan nan nan nan nan nan nan nan nan nan nan nan nan nan nan nan nan nan nan nan nan nan nan nan nan nan nan nan nan nan nan nan nan
nan nan nan nan nan nan nan nan nan nan nan nan nan nan nan nan nan nan nan nan nan nan nan nan nan nan nan nan nan nan nan nan nan nan nan nan nan nan nan nan nan nan nan nan nan nan nan nan nan nan nan nan nan nan nan nan nan nan nan nan nan nan nan nan nan nan nan nan nan nan nan nan nan nan nan nan nan nan nan nan nan nan nan nan nan nan
nan nan nan nan nan nan nan nan nan nan nan nan nan nan nan nan nan nan nan nan nan nan nan nan nan nan nan nan nan nan nan nan nan nan nan nan nan nan nan nan nan nan nan nan nan nan nan nan nan nan nan nan nan nan nan nan nan nan nan nan nan nan nan nan nan nan nan nan nan nan nan nan nan nan nan nan nan nan nan nan nan nan nan nan nan nan
nan nan nan nan nan nan nan nan nan nan nan nan nan nan nan nan nan nan nan nan nan nan nan nan nan nan nan nan nan nan nan nan nan nan nan nan nan nan nan nan nan nan nan nan nan nan nan nan nan nan nan nan nan nan nan nan nan nan nan nan nan nan nan nan nan nan nan nan nan nan nan nan nan nan nan nan nan nan nan nan nan nan nan nan nan nan
nan nan nan nan nan nan nan nan nan nan nan nan nan nan nan nan nan nan nan nan nan nan nan nan nan nan nan nan nan nan nan nan nan nan nan nan nan nan nan nan nan nan nan nan nan nan nan nan nan nan nan nan nan nan nan nan nan nan nan nan nan nan nan nan nan nan nan nan nan nan nan nan nan nan nan nan nan nan nan nan nan nan nan nan nan nan
nan nan nan nan nan nan nan nan nan nan nan nan nan nan nan nan nan nan nan nan nan nan nan nan nan nan nan nan nan nan nan nan nan nan nan nan nan nan nan nan nan nan nan nan nan nan nan nan nan nan nan nan nan nan nan nan nan nan nan nan nan nan nan nan nan nan nan nan nan nan nan nan nan nan nan nan nan nan nan nan nan nan nan nan nan nan
nan nan nan nan nan nan nan nan nan nan nan nan nan nan nan nan nan nan nan nan nan nan nan nan nan nan nan nan nan nan nan nan nan nan nan nan nan nan nan nan nan nan nan nan nan nan nan nan nan nan nan nan nan nan nan nan nan nan nan nan nan nan nan nan nan nan nan nan nan nan nan nan nan nan nan nan nan nan nan nan nan nan nan nan nan nan
nan nan nan nan nan nan nan nan nan nan nan nan nan nan nan nan 1 1 nan nan nan nan nan nan nan nan nan nan nan nan nan nan nan nan nan nan nan nan nan nan nan nan nan nan nan nan nan nan nan nan nan nan nan nan nan nan nan nan nan nan nan nan nan nan nan nan nan nan nan nan nan nan nan nan nan nan nan nan nan nan nan nan nan nan nan nan
nan nan nan nan nan nan nan nan nan nan nan nan nan nan nan nan nan nan nan nan nan nan nan nan nan nan nan nan nan nan nan nan nan nan nan nan nan nan nan nan nan nan nan nan nan nan nan nan nan nan nan nan nan nan nan nan nan nan nan nan nan nan nan nan nan nan nan nan nan nan nan nan nan nan nan nan nan nan nan nan nan nan nan nan nan nan
nan nan nan nan nan nan nan nan nan nan nan nan nan nan nan nan nan nan nan nan nan nan nan nan nan nan nan nan nan nan nan nan nan nan nan nan nan nan nan nan nan nan nan nan nan nan nan nan nan nan nan 4 nan nan nan nan nan nan nan nan nan nan nan nan nan nan nan nan nan nan nan nan nan nan nan nan nan nan nan nan nan nan nan nan nan nan